| time (UTC) | temp F | wind direction | speed MPH | gust MPH | rain 1hr in | rain 24hr in | rain mn in | humidity % | barometer mb |
| 20260504001401 | 64 | 227 | 0.0 | 0.0 | 0.00 | 0.05 | 0.01 | 54 | 1015.6 |
| 20260504000328 | 65 | 227 | 0.0 | 0.0 | 0.00 | 0.05 | 0.01 | 52 | 1015.5 |
| 20260503235301 | 66 | 227 | 0.0 | 0.0 | 0.00 | 0.05 | 0.01 | 52 | 1015.5 |
| 20260503232020 | 68 | 262 | 0.0 | 4.0 | 0.00 | 0.05 | 0.01 | 44 | 1015.5 |
| 20260503225856 | 69 | 275 | 0.0 | 5.0 | 0.00 | 0.05 | 0.01 | 43 | 1015.6 |
| 20260503224836 | 69 | 276 | 0.0 | 2.0 | 0.00 | 0.05 | 0.01 | 46 | 1015.6 |
| 20260503223901 | 70 | 305 | 0.0 | 3.0 | 0.00 | 0.05 | 0.01 | 50 | 1015.6 |
| 20260503222857 | 70 | 355 | 0.0 | 4.0 | 0.00 | 0.05 | 0.01 | 43 | 1015.7 |
| 20260503221915 | 71 | 326 | 0.0 | 1.0 | 0.00 | 0.05 | 0.01 | 47 | 1015.7 |
| 20260503220853 | 71 | 308 | 0.0 | 0.0 | 0.00 | 0.05 | 0.01 | 42 | 1015.7 |
| 20260503215855 | 71 | 260 | 1.0 | 9.0 | 0.00 | 0.05 | 0.01 | 39 | 1015.7 |
| 20260503214911 | 72 | 325 | 1.0 | 8.0 | 0.00 | 0.05 | 0.01 | 44 | 1015.7 |
| 20260503213921 | 72 | 288 | 0.0 | 2.0 | 0.00 | 0.05 | 0.01 | 36 | 1015.6 |
| 20260503211755 | 74 | 176 | 0.0 | 5.0 | 0.00 | 0.05 | 0.01 | 38 | 1015.7 |
| 20260503210743 | 74 | 170 | 1.0 | 12.0 | 0.00 | 0.05 | 0.01 | 38 | 1015.7 |
| 20260503205752 | 74 | 238 | 0.0 | 9.0 | 0.00 | 0.05 | 0.01 | 40 | 1015.8 |
| 20260503204742 | 74 | 270 | 0.0 | 5.0 | 0.00 | 0.05 | 0.01 | 41 | 1015.8 |
| 20260503203715 | 74 | 323 | 0.0 | 7.0 | 0.00 | 0.05 | 0.01 | 42 | 1015.9 |
| 20260503202708 | 73 | 322 | 0.0 | 5.0 | 0.00 | 0.05 | 0.01 | 41 | 1016.0 |
| 20260503200542 | 73 | 246 | 1.0 | 0.0 | 0.00 | 0.06 | 0.01 | 42 | 1016.4 |
| 20260503195547 | 73 | 347 | 1.0 | 9.0 | 0.00 | 0.07 | 0.01 | 44 | 1016.6 |
| 20260503194556 | 73 | 315 | 1.0 | 8.0 | 0.00 | 0.07 | 0.01 | 44 | 1016.7 |
| 20260503193552 | 73 | 325 | 1.0 | 10.0 | 0.00 | 0.07 | 0.01 | 43 | 1016.8 |
| 20260503192519 | 72 | 311 | 1.0 | 8.0 | 0.00 | 0.07 | 0.01 | 42 | 1017.1 |
| 20260503191512 | 72 | 328 | 2.0 | 8.0 | 0.00 | 0.07 | 0.01 | 41 | 1017.3 |
| 20260503184211 | 71 | 223 | 1.0 | 0.0 | 0.00 | 0.07 | 0.01 | 44 | 1017.8 |
| 20260503183148 | 71 | 191 | 1.0 | 6.0 | 0.00 | 0.07 | 0.01 | 46 | 1018.1 |
| 20260503182207 | 71 | 257 | 0.0 | 0.0 | 0.00 | 0.07 | 0.01 | 46 | 1018.3 |
| 20260503181144 | 70 | 237 | 1.0 | 7.0 | 0.00 | 0.07 | 0.01 | 45 | 1018.4 |
| 20260503180113 | 70 | 188 | 1.0 | 8.0 | 0.00 | 0.07 | 0.01 | 45 | 1018.5 |
| 20260503175131 | 70 | 319 | 1.0 | 8.0 | 0.00 | 0.07 | 0.01 | 50 | 1018.6 |
| 20260503174115 | 70 | 195 | 0.0 | 8.0 | 0.00 | 0.07 | 0.01 | 48 | 1018.7 |
| 20260503173135 | 70 | 184 | 1.0 | 7.0 | 0.00 | 0.07 | 0.01 | 53 | 1018.8 |
| 20260503172103 | 69 | 273 | 1.0 | 9.0 | 0.00 | 0.07 | 0.01 | 50 | 1018.7 |
| 20260503171115 | 69 | 260 | 1.0 | 10.0 | 0.00 | 0.07 | 0.01 | 49 | 1018.9 |
| 20260503150639 | 61 | 68 | 0.0 | 0.0 | 0.00 | 0.12 | 0.01 | 70 | 1019.9 |
| 20260503130322 | 51 | 88 | 0.0 | 0.0 | 0.00 | 0.19 | 0.01 | 93 | 1019.5 |
| 20260503110753 | 45 | 88 | 0.0 | 0.0 | 0.00 | 0.31 | 0.01 | 92 | 1018.4 |
| 20260503090313 | 47 | 88 | 0.0 | 0.0 | 0.00 | 0.41 | 0.01 | 92 | 1016.8 |
| 20260503081211 | 49 | 88 | 0.0 | 0.0 | 0.00 | 0.49 | 0.01 | 93 | 1016.5 |
| 20260503080152 | 49 | 88 | 0.0 | 0.0 | 0.00 | 0.51 | 0.01 | 92 | 1016.4 |
| 20260503072032 | 50 | 88 | 0.0 | 0.0 | 0.00 | 0.59 | 0.01 | 93 | 1016.1 |
| 20260503071016 | 50 | 88 | 0.0 | 0.0 | 0.00 | 0.60 | 0.01 | 92 | 1016.2 |
| 20260503054714 | 51 | 88 | 0.0 | 0.0 | 0.00 | 0.67 | 0.00 | 93 | 1016.0 |
| 20260503051454 | 52 | 88 | 0.0 | 0.0 | 0.00 | 0.69 | 0.00 | 92 | 1015.8 |
| 20260503045232 | 53 | 88 | 0.0 | 0.0 | 0.00 | 0.69 | 0.00 | 93 | 1015.6 |
| 20260503044216 | 53 | 88 | 0.0 | 0.0 | 0.00 | 0.69 | 0.00 | 92 | 1015.6 |
| 20260503043223 | 54 | 88 | 0.0 | 0.0 | 0.00 | 0.70 | 0.00 | 93 | 1015.5 |
| 20260503042207 | 54 | 88 | 0.0 | 0.0 | 0.00 | 0.70 | 0.00 | 93 | 1015.5 |
| 20260503041208 | 54 | 88 | 0.0 | 0.0 | 0.00 | 0.70 | 0.00 | 93 | 1015.6 |
| 20260503040150 | 54 | 88 | 0.0 | 0.0 | 0.00 | 0.70 | 0.00 | 93 | 1015.6 |
| 20260503035124 | 54 | 88 | 0.0 | 0.0 | 0.00 | 0.70 | 0.70 | 93 | 1015.5 |
| 20260503034139 | 54 | 88 | 0.0 | 0.0 | 0.00 | 0.70 | 0.70 | 93 | 1015.6 |
| 20260503033159 | 54 | 88 | 0.0 | 0.0 | 0.00 | 0.70 | 0.70 | 93 | 1015.5 |
| 20260503031043 | 54 | 88 | 0.0 | 0.0 | 0.00 | 0.70 | 0.70 | 93 | 1015.2 |
| 20260503030039 | 54 | 88 | 0.0 | 0.0 | 0.00 | 0.70 | 0.70 | 93 | 1015.2 |
| 20260503025035 | 54 | 88 | 0.0 | 0.0 | 0.00 | 0.70 | 0.70 | 92 | 1015.0 |
| 20260503024054 | 54 | 88 | 0.0 | 0.0 | 0.00 | 0.70 | 0.70 | 92 | 1014.9 |
| 20260503023106 | 54 | 88 | 0.0 | 0.0 | 0.00 | 0.70 | 0.70 | 92 | 1014.7 |
| 20260503022119 | 54 | 88 | 0.0 | 0.0 | 0.00 | 0.70 | 0.70 | 92 | 1014.4 |
| 20260503021110 | 54 | 88 | 0.0 | 0.0 | 0.00 | 0.70 | 0.70 | 92 | 1014.1 |
| 20260503020105 | 54 | 88 | 0.0 | 0.0 | 0.05 | 0.70 | 0.70 | 92 | 1014.1 |
| 20260503015035 | 54 | 88 | 0.0 | 0.0 | 0.21 | 0.65 | 0.70 | 92 | 1014.0 |
| 20260503014042 | 54 | 88 | 0.0 | 0.0 | 0.00 | 0.65 | 0.66 | 92 | 1013.9 |
| 20260503013045 | 54 | 88 | 0.0 | 0.0 | 0.00 | 0.65 | 0.66 | 92 | 1013.4 |
| 20260503012047 | 55 | 88 | 0.0 | 0.0 | 0.00 | 0.65 | 0.66 | 92 | 1013.2 |
| 20260503011100 | 55 | 88 | 0.0 | 0.0 | 0.00 | 0.65 | 0.66 | 92 | 1013.1 |
| 20260503010045 | 54 | 88 | 0.0 | 0.0 | 0.00 | 0.65 | 0.66 | 92 | 1013.0 |
| 20260503005048 | 54 | 88 | 0.0 | 0.0 | 0.00 | 0.65 | 0.66 | 91 | 1012.9 |
| 20260503004038 | 55 | 88 | 0.0 | 0.0 | 0.00 | 0.65 | 0.66 | 91 | 1012.7 |
| 20260503003021 | 55 | 88 | 0.0 | 0.0 | 0.00 | 0.65 | 0.66 | 91 | 1012.7 |